Oceana NAS, VA

11:29 PM EDT on May 26, 2017 (GMT -0400)
Oceana Naval Air Station

Weather History for KNTU - October, 2013

Change the Weather History Date:

Wednesday, October 30, 2013

  Actual Average Record
Temperature  
Mean Temperature 62 °F -  
Max Temperature 73 °F 63 °F 82 °F (1996)
Min Temperature 51 °F 46 °F 35 °F (2008)
Degree Days  
Heating Degree Days 4    
Growing Degree Days 12 (Base 50)    
Moisture  
Dew Point 53 °F    
Average Humidity 75    
Maximum Humidity 97    
Minimum Humidity 50    
Precipitation  
Precipitation 0.00 in - - ()
Sea Level Pressure  
Sea Level Pressure 30.25 in    
Wind  
Wind Speed 3 mph (SSW)    
Max Wind Speed 12 mph    
Max Gust Speed 22 mph    
Visibility 8 miles    
Events Fog    
Averages and records for this station are not official NWS values.
T = Trace of Precipitation, MM = Missing Value Source: NWS Daily Summary

Daily Weather History Graph

Daily Weather History Graph

Search for Another Location

Airport or City:

Trip Planner

Search our weather history database for the weather conditions in past years. The results will help you decide how hot, cold, wet, or windy it might be!

Date:

Astronomy

Oct. 30, 2013 Rise Set
Actual Time 7:26 AM EDT 6:08 PM EDT
Civil Twilight 6:59 AM EDT 6:35 PM EDT
Nautical Twilight 6:28 AM EDT 7:06 PM EDT
Astronomical Twilight 5:58 AM EDT 7:36 PM EDT
Moon 3:18 AM EDT (10/30) 3:47 PM EDT (10/30)
Length of Visible Light 11h 36m
Length of Day
10h 42m
Waning Crescent, 17% of the Moon is Illuminated
Oct 30
Waning Crescent
Nov 3
New
Nov 10
First Quarter
Nov 17
Full
Nov 25
Last Quarter

Hourly Weather History & Observations

Time (EDT) Temp. Dew Point Humidity Pressure Visibility Wind Dir Wind Speed Gust Speed Precip Events Conditions
12:56 AM 51.1 °F 48.9 °F 92% 30.31 in 6.0 mi Calm Calm - N/A   Overcast
1:56 AM 51.1 °F 48.9 °F 92% 30.31 in 6.0 mi Calm Calm - N/A   Overcast
2:56 AM 52.0 °F 50.0 °F 93% 30.30 in 6.0 mi Calm Calm - N/A   Overcast
3:56 AM 53.1 °F 51.1 °F 93% 30.29 in 6.0 mi Calm Calm - N/A   Overcast
4:56 AM 53.1 °F 52.0 °F 96% 30.27 in 6.0 mi SW 3.5 mph - N/A   Overcast
5:56 AM 51.1 °F 50.0 °F 96% 30.29 in 6.0 mi Calm Calm - N/A   Overcast
6:56 AM 52.0 °F 51.1 °F 97% 30.29 in 7.0 mi Calm Calm - N/A Fog Patches of Fog
7:56 AM 52.0 °F 50.0 °F 93% 30.29 in 7.0 mi Calm Calm - N/A Fog Patches of Fog
8:56 AM 57.0 °F 55.0 °F 93% 30.30 in 6.0 mi Calm Calm - N/A   Mostly Cloudy
9:56 AM 64.0 °F 55.0 °F 73% 30.31 in 7.0 mi Calm Calm - N/A   Mostly Cloudy
10:56 AM 68.0 °F 48.9 °F 50% 30.30 in 10.0 mi SSW 10.4 mph - N/A   Mostly Cloudy
11:56 AM 70.0 °F 51.1 °F 51% 30.28 in 10.0 mi SW 8.1 mph - N/A   Mostly Cloudy
12:56 PM 72.0 °F 54.0 °F 53% 30.25 in 10.0 mi SW 11.5 mph - N/A   Scattered Clouds
1:56 PM 72.0 °F 54.0 °F 53% 30.22 in 10.0 mi SW 11.5 mph 21.9 mph N/A   Mostly Cloudy
2:56 PM 72.0 °F 54.0 °F 53% 30.20 in 10.0 mi WSW 9.2 mph - N/A   Overcast
3:56 PM 71.1 °F 55.0 °F 57% 30.19 in 10.0 mi SW 4.6 mph - N/A   Mostly Cloudy
4:56 PM 68.0 °F 57.9 °F 70% 30.19 in 10.0 mi SSE 8.1 mph - N/A   Mostly Cloudy
5:56 PM 66.9 °F 57.9 °F 73% 30.19 in 10.0 mi South 9.2 mph - N/A   Overcast
6:56 PM 66.0 °F 55.9 °F 70% 30.20 in 10.0 mi SSE 9.2 mph - N/A   Overcast
7:56 PM 66.0 °F 55.9 °F 70% 30.23 in 10.0 mi South 6.9 mph - N/A   Overcast
8:56 PM 66.0 °F 55.9 °F 70% 30.22 in 10.0 mi South 8.1 mph - N/A   Overcast
9:56 PM 64.9 °F 55.9 °F 73% 30.22 in 10.0 mi South 6.9 mph - N/A   Overcast
10:56 PM 64.0 °F 55.0 °F 73% 30.23 in 10.0 mi SSW 6.9 mph - N/A   Overcast
11:56 PM 64.0 °F 54.0 °F 70% 30.22 in 10.0 mi South 6.9 mph - N/A   Mostly Cloudy